星链-5048 (STARLINK-5048 )

导读 | 星芒AI

STARLINK-5048 是 SpaceX Starlink 项目中的一颗低轨通信卫星,属于第 13 批组网卫星(v1.5 版本)。该卫星于 2022 年 9 月发射,运行在约 550 公里的轨道高度,旨在为全球用户提供高速互联网服务。它采用先进的相控阵天线和激光通信技术,提升网络覆盖与传输效率。作为 Starlink 卫星互联网系统的一部分,STARLINK-5048 支持偏远地区网络接入,增强系统的冗余性和稳定性,推动全球宽带普及。

基本信息
目录编号:
53911
目录名称:
STARLINK-5048
国际标识:
2022-119AB
轨道中心:
EARTH
卫星名称:
星链-5048
卫星全名:
星链-5048 (STARLINK-5048 )
卫星状态:
在轨 (已飞行1137 天)
发射日期:
2022-09-24 UTC
国别 :
美国 (US)
星等 :
--
轨道信息
数据来源 国际轨道数据 AOE轨道数据
星历时间 2025-11-04T15:20:51+0800
15小时前
查看轨道信息
2025-10-30T18:00:00+0800
5天前
查看轨道信息
半长轴 6917.885km 6917.874km
偏心率 0.0001951 0.0001341
轨道倾角 53.216° 53.215°
近地点辐角 81.989° 85.467°
升交点赤经 157.172° 179.122°
平近点角 278.132° 341.383°
近地点 538.4km 538.811km
远地点 541.1km 540.667km
周期 95.438分钟 95.437分钟
每日圈数 15.088387 15.088424
详细信息
固有亮度:
5
最大亮度:
2.5
卫星平台:
Starlink v1.5
覆盖范围:
全球
运营商:
太空探索技术公司
运营商所在国:
美国
制造商(研发单位):
太空探索技术公司
制造商所在国:
美国
使用方式:
暂无
卫星简介
星链(Starlink)计划是由太空探索技术公司(SpaceX)提出的一个巨型低轨卫星互联网星座项目,计划在2019年至2024年间在太空搭建由约1.2万颗卫星组成的“星链”网络,其中1584颗将部署在地球上空550千米处的近地轨道,并从2020年开始工作。该卫星仍在工作。
2D轨道图
3D轨道图
轨道高度分析图
轨道倾角分析图
轨道综合分析图
查看轨道综合分析图